Weather History for Las Vegas, NM

Change the Weather History Date:

Friday, March 22, 2013

  Actual Average Record
Temperature  
Mean Temperature 38 °F -  
Max Temperature 51 °F 57 °F 71 °F (2004)
Min Temperature 24 °F 27 °F -3 °F (1952)
Degree Days  
Heating Degree Days 28    
Moisture  
Dew Point 20 °F    
Average Humidity 52    
Maximum Humidity 85    
Minimum Humidity 25    
Precipitation  
Precipitation 0.00 in - - ()
Sea Level Pressure  
Sea Level Pressure 29.69 in    
Wind  
Wind Speed 11 mph (South)    
Max Wind Speed 24 mph    
Max Gust Speed 36 mph    
Visibility 10 miles    
Events      
Averages and records for this station are not official NWS values.
T = Trace of Precipitation, MM = Missing Value Source: NWS Daily Summary

Daily Weather History Graph

Daily Weather History Graph

Search for Another Location

Airport:

Trip Planner

Search our weather history database for the weather conditions in past years. The results will help you decide how hot, cold, wet, or windy it might be!

Date:

Astronomy

Mar. 22, 2013 Rise Set
Actual Time 7:00 AM MDT 7:14 PM MDT
Civil Twilight 6:35 AM MDT 7:39 PM MDT
Nautical Twilight 6:05 AM MDT 8:09 PM MDT
Astronomical Twilight 5:35 AM MDT 8:39 PM MDT
Moon 2:51 PM MDT (3/22) 3:54 AM MDT (3/22)
Length of Visible Light 13h 04m
Length of Day
12h 13m
Waxing Gibbous, 78% of the Moon is Illuminated
Mar 22
Waxing Gibbous
Mar 27
Full
Apr 2
Last Quarter
Apr 10
New
Apr 18
First Quarter

Hourly Weather History & Observations

Time (MDT) Temp. Windchill Dew Point Humidity Pressure Visibility Wind Dir Wind Speed Gust Speed Precip Events Conditions
12:53 AM 41.0 °F 35.8 °F 7.0 °F 25% 29.58 in 10.0 mi NNW 8.1 mph - N/A   Clear
1:53 AM 37.9 °F 31.5 °F 6.1 °F 27% 29.59 in 10.0 mi East 9.2 mph - N/A   Clear
2:53 AM 34.0 °F 24.6 °F 17.1 °F 50% 29.61 in 10.0 mi East 13.8 mph - N/A   Clear
3:53 AM 28.0 °F 20.0 °F 15.1 °F 58% 29.63 in 10.0 mi ENE 8.1 mph - N/A   Clear
4:53 AM 25.0 °F 13.6 °F 19.0 °F 78% 29.65 in 10.0 mi NNE 12.7 mph - N/A   Clear
5:53 AM 24.1 °F 14.4 °F 19.9 °F 84% 29.69 in 10.0 mi NE 9.2 mph - N/A   Clear
6:53 AM 25.0 °F 14.2 °F 21.0 °F 85% 29.74 in 10.0 mi East 11.5 mph - N/A   Clear
7:53 AM 27.0 °F 21.6 °F 23.0 °F 85% 29.78 in 10.0 mi SE 4.6 mph - N/A   Scattered Clouds
8:38 AM 32.0 °F - 26.6 °F 80% 29.89 in 10.0 mi Calm Calm - N/A   Mostly Cloudy
8:53 AM 32.0 °F 28.7 °F 26.1 °F 79% 29.80 in 10.0 mi SE 3.5 mph - N/A   Mostly Cloudy
9:10 AM 33.8 °F 29.6 °F 26.6 °F 75% 29.89 in 10.0 mi Variable 4.6 mph - N/A   Scattered Clouds
9:53 AM 36.0 °F 30.3 °F 26.1 °F 67% 29.78 in 10.0 mi SSW 6.9 mph - N/A   Scattered Clouds
10:01 AM 35.6 °F 31.7 °F 26.6 °F 70% 29.89 in 10.0 mi South 4.6 mph - N/A   Mostly Cloudy
10:40 AM 39.2 °F 33.0 °F 26.6 °F 61% 29.88 in 10.0 mi South 9.2 mph - N/A   Partly Cloudy
10:53 AM 39.9 °F 32.9 °F 27.0 °F 60% 29.75 in 10.0 mi South 11.5 mph - N/A   Partly Cloudy
11:53 AM 44.1 °F 35.9 °F 26.1 °F 49% 29.70 in 10.0 mi South 19.6 mph 29.9 mph N/A   Clear
12:53 PM 48.0 °F - 24.1 °F 39% 29.64 in 10.0 mi South 24.2 mph 33.4 mph N/A   Clear
1:53 PM 48.9 °F - 24.1 °F 38% 29.62 in 10.0 mi South 24.2 mph 35.7 mph N/A   Partly Cloudy
2:53 PM 48.9 °F - 23.0 °F 36% 29.61 in 10.0 mi South 20.7 mph 29.9 mph N/A   Mostly Cloudy
3:53 PM 46.9 °F - 26.1 °F 44% 29.62 in 10.0 mi South 18.4 mph 25.3 mph N/A   Mostly Cloudy
4:53 PM 48.0 °F - 25.0 °F 41% 29.62 in 10.0 mi South 21.9 mph - N/A   Scattered Clouds
5:53 PM 51.1 °F - 23.0 °F 33% 29.61 in 10.0 mi South 21.9 mph 31.1 mph N/A   Scattered Clouds
6:53 PM 46.9 °F - 16.0 °F 29% 29.63 in 10.0 mi WSW 15.0 mph - N/A   Clear
7:53 PM 37.9 °F 30.5 °F 15.1 °F 39% 29.67 in 10.0 mi South 11.5 mph - N/A   Clear
8:53 PM 39.9 °F 34.5 °F 15.1 °F 36% 29.64 in 10.0 mi South 8.1 mph - N/A   Mostly Cloudy
9:53 PM 44.1 °F 37.7 °F 14.0 °F 30% 29.62 in 10.0 mi SSW 12.7 mph 24.2 mph N/A   Clear
10:53 PM 44.1 °F 37.4 °F 14.0 °F 30% 29.60 in 10.0 mi SW 13.8 mph 21.9 mph N/A   Partly Cloudy
11:53 PM 39.0 °F 31.0 °F 14.0 °F 36% 29.60 in 10.0 mi SW 13.8 mph - N/A   Partly Cloudy